Location: Lucerne Valley
(34.4439°N, 116.9669°E)
Time: 20:11:07
(UTC-08:00)

Tiangong 2 - Pass Details

Date: 09 October 2017
Orbit: 386 x 390 km, 42.8° (Epoch: 10 December)

Event Time Altitude Azimuth Distance (km) Brightness Sun altitude
Exits shadow 14:17:05 21° 288° (WNW) 938 2.4 -12.4°
Maximum altitude 14:18:40 34° 340° (NNW) 658 2.0 -12.1°
Drops below altitude 10° 14:21:38 10° 48° (NE) 1,423 4.7 -11.5°
Sets 14:23:50 0° 58° (ENE) 2,281 6.0 -11.0°
